Flag for Norway Weather past 2 weeks in Langesund, Norway

Now
57 °F

Cool.


Feels Like: 55 °F
Forecast: 52 / 57 °F
Wind: 12 mph from Northeast

Location: Jomfruland Fyr

Current Time: Sep 1, 2015 at 12:30:29 PM

Latest Report: Sep 1, 2015 at 11:00 AM


Visibility: N/A

Pressure: 29.80 "Hg

Humidity: 83%

Dew point: 52 °F

Location of LangesundLocation

Historic Weather in Langesund — Graph

°F

Langesund temperature yesterday

Maximum temperature yesterday: 65 °F (at 4:00 PM)
Minimum temperature yesterday: 55 °F (at 6:00 AM)
Average temperature yesterday: 60 °F

Past Weeks' High & Low Weather Summary

 TemperatureHumidityPressure
High74 °F (Aug 23, 5:00 PM)95% (Aug 25, 12:00 PM)30.36 "Hg (Aug 25, 12:00 PM)
Low55 °F (Aug 31, 6:00 AM)43% (Aug 20, 5:00 PM)29.50 "Hg (Aug 27, 2:00 PM)
Average63 °F75%30.03 "Hg
* Reported Aug 17 11:00 AM — Sep 1 11:00 AM, Langesund, Weather by CustomWeather, © 2015

Note: Actual official high and low records may vary slightly from our data, if they occured in-between our weather recording intervals... More about our weather records

Advertising

Langesund weather history for previous 24 hours

 ConditionsComfort  
Time TempWeatherWind HumidityBarometerVisibility
11:00 AM
Tue, Sep 1
57 °FCool.12 mph83%29.80 "HgN/A
10:00 AM57 °FCool.12 mph86%29.81 "HgN/A
9:00 AM58 °FCool.9 mph86%29.81 "HgN/A
8:00 AM58 °FCool.9 mph86%29.81 "HgN/A
7:00 AM59 °FCool.9 mph83%29.83 "HgN/A
6:00 AM59 °FCool.8 mph83%29.83 "HgN/A
5:00 AM60 °FCool.6 mph83%29.84 "HgN/A
4:00 AM59 °FCool.6 mph84%29.85 "HgN/A
3:00 AM60 °FCool.5 mph78%29.87 "HgN/A
2:00 AM60 °FCool.5 mph74%29.88 "HgN/A
1:00 AM60 °FCool.5 mph79%29.90 "HgN/A
12:00 AM60 °FCool.5 mph82%29.92 "HgN/A
10:00 PM
Mon, Aug 31
60 °FCool.2 mph86%29.94 "HgN/A
9:00 PM59 °FCool.1 mph85%29.96 "HgN/A
8:00 PM59 °FCool.1 mph84%29.96 "HgN/A
7:00 PM61 °FCool.1 mph77%29.98 "HgN/A
6:00 PM62 °FMild.1 mph73%29.98 "HgN/A
5:00 PM64 °FMild.2 mph65%29.99 "HgN/A
4:00 PM65 °FMild.2 mph69%30.01 "HgN/A
3:00 PM65 °FMild.2 mph71%30.02 "HgN/A
2:00 PM63 °FMild.3 mph72%30.02 "HgN/A
1:00 PM62 °FCool.3 mph77%30.04 "HgN/A
12:00 PM62 °FCool.3 mph75%30.04 "HgN/A
Weather by CustomWeather, © 2015

See weather overviewHow to use our weather pages